Location: Namasale
(1.5000°N, 32.6167°E)
Time: 23:10:59
(UTC+00:00)

Transit 2A - Pass Details

Date: 19 April 2021
Orbit: 602 x 957 km, 66.7° (Epoch: 11 May)

Event Time Altitude Azimuth Distance (km) Brightness Sun altitude
Rises 03:03:58 0° 186° (S) 3,452 9.2 -10.7°
Reaches altitude 10° 03:06:43 10° 179° (S) 2,459 8.5 -10.0°
Maximum altitude 03:11:56 39° 111° (ESE) 1,164 7.5 -8.7°
Drops below altitude 10° 03:16:41 10° 43° (NE) 2,226 9.3 -7.6°
Sets 03:19:03 0° 35° (NE) 3,089 9.9 -7.0°
